Temp
19 18 18 17 17 17 17 17 17 17 16 16 16 16 16 16 16 16 16 15 15 15 14 14 14 14 14 14 14 14 14 15 15 14 15 15 15 15 15 15 14 14 15 14 14 14 14 14 14 14 15 15 15 15 15 15 15 15 15 16 16 15 15 15 16 16 18 19 19 19 20 20 20 19 19 19 19 20 20 20 20 19 19 19 19
18 18 18 17 17 17 17 17 16 16 16 16 15 15 15 15 15 16 15 15 15 15 14 14 14 14 14 14 14 14 13 13 13 13 14 14 14 14 14 14 14 14 14 14 14 14 14 13 13 14 14 14 14 14 14 14 15 15 15 15 15 15 15 15 15 16 17 18 19 19 19 19 19 19 19 19 19 19 19 19 19 19 19 19 19
18 18 17 17 17 17 17 16 16 16 16 15 15 15 15 15 15 15 15 15 14 14 14 14 14 14 14 14 14 13 12 12 13 13 13 14 14 14 14 14 13 13 13 13 13 13 13 13 13 13 13 14 14 14 14 14 14 14 14 14 15 15 15 15 15 15 15 17 18 18 18 18 18 18 19 19 19 19 19 19 19 19 19 19 19
18 17 17 17 17 16 16 16 16 16 15 15 15 15 15 15 15 15 15 14 14 14 14 14 13 13 14 14 14 13 12 12 13 13 13 13 13 13 13 13 13 13 13 13 13 13 12 12 12 12 13 13 13 13 13 13 13 14 14 14 14 15 15 15 15 15 15 16 17 17 17 17 17 18 18 19 19 19 19 19 19 19 19 19 19
17 17 17 17 16 16 16 16 16 16 15 15 15 15 15 15 14 15 14 14 14 13 13 13 13 13 13 13 13 13 12 13 13 13 13 13 13 13 13 13 13 13 13 13 12 12 12 12 12 12 12 12 12 12 12 13 13 13 14 14 14 14 15 15 15 15 15 16 16 17 17 17 17 17 17 18 18 19 19 19 19 19 19 19 19
17 17 16 16 16 16 16 16 16 15 15 15 15 15 15 15 14 14 14 14 14 13 13 13 13 13 13 13 13 13 13 13 13 13 13 14 13 13 13 13 13 13 13 13 12 12 12 12 12 12 12 11 11 11 12 12 13 13 14 14 14 14 15 15 15 15 16 16 16 16 16 16 16 16 16 16 17 17 18 19 19 18 18 18 19
17 16 16 16 16 16 16 16 16 15 15 15 15 15 15 15 15 14 14 14 14 13 13 13 13 13 13 13 13 13 13 13 13 13 13 14 13 13 13 13 13 13 13 13 12 12 12 12 12 12 12 11 11 11 12 12 13 13 13 14 14 14 14 15 15 15 15 15 15 15 15 15 15 15 15 16 17 16 16 17 17 18 18 18 18
17 17 16 16 16 16 16 15 15 15 15 15 15 15 15 15 15 14 14 14 14 13 13 13 13 13 13 13 13 13 13 13 13 13 13 13 13 13 13 13 13 13 13 12 12 12 12 12 12 12 11 11 11 11 11 12 13 13 13 14 14 14 14 14 15 15 15 15 15 15 14 14 14 15 15 16 16 15 15 15 15 16 17 18 18
17 17 16 16 16 16 16 16 15 15 15 15 15 15 15 14 14 14 14 14 14 14 13 13 13 13 13 13 13 13 13 13 13 13 13 13 13 13 13 13 13 13 12 12 12 12 12 12 12 11 11 11 11 11 11 12 12 13 13 14 14 14 14 14 14 14 14 14 14 15 14 14 14 14 14 14 14 14 15 15 15 15 17 18 18
17 17 16 16 16 16 16 16 15 15 15 15 15 15 14 14 14 14 14 14 14 14 14 14 14 13 13 13 13 13 12 12 13 13 13 13 13 13 13 12 12 12 12 12 12 12 12 12 12 11 11 11 11 12 12 12 12 12 13 13 14 14 14 14 14 14 13 13 14 14 14 13 13 13 13 14 14 14 14 14 14 15 16 17 18
17 17 16 16 16 16 16 16 15 15 15 15 15 15 15 15 15 14 14 14 14 14 14 14 13 13 13 13 13 13 12 12 13 13 13 13 13 13 12 12 12 12 12 12 11 11 11 11 11 11 10 10 11 11 12 11 12 12 12 13 13 13 13 13 14 14 13 13 13 13 13 13 13 13 13 13 14 14 14 14 14 14 14 15 15
17 16 16 16 16 16 16 15 15 15 15 15 15 15 15 15 15 15 14 14 14 14 14 14 13 13 13 13 13 12 12 12 12 12 13 13 12 13 12 12 12 12 12 11 11 12 11 11 10 10 10 10 10 11 11 11 12 12 12 13 13 13 13 13 13 13 13 13 13 13 13 13 13 13 13 13 13 14 14 14 14 14 14 14 14
16 16 16 16 16 16 15 15 15 15 15 15 15 15 15 15 15 15 15 14 14 14 14 14 14 13 13 13 13 12 12 12 12 12 12 12 12 12 12 12 12 12 11 11 11 11 11 11 10 10 10 10 10 10 11 11 12 12 12 13 13 13 13 13 13 13 13 13 13 13 13 13 13 13 13 13 13 14 14 14 14 14 14 14 14
16 16 16 16 16 15 15 15 15 15 15 15 15 15 15 15 15 15 15 14 14 14 14 14 14 14 13 13 13 12 12 12 12 12 12 12 12 12 12 11 11 11 11 11 11 11 11 11 11 11 11 11 10 10 11 11 11 12 12 12 13 13 13 13 13 13 13 13 14 14 14 14 13 13 13 13 13 14 13 13 13 14 15 15 15
16 16 16 16 15 15 15 15 15 15 15 15 15 15 15 15 15 15 15 15 14 14 14 14 14 14 14 13 13 13 12 12 12 12 12 12 12 12 12 11 11 11 11 11 11 11 11 11 11 11 11 11 11 11 11 11 11 12 12 12 12 12 12 13 13 13 13 14 14 14 14 14 13 13 13 13 14 14 14 13 14 14 15 15 15
16 16 16 16 16 15 15 15 15 15 15 15 15 15 15 15 15 15 15 15 15 15 14 14 14 14 14 14 13 13 13 12 12 12 12 12 12 12 12 11 11 11 11 11 11 11 11 11 11 11 11 11 11 11 11 11 12 12 12 12 12 12 12 12 13 13 13 14 14 14 14 14 13 13 13 14 14 14 14 14 14 15 15 15 15
16 16 16 16 16 16 15 15 15 15 15 15 15 15 15 15 15 15 15 15 15 15 15 15 14 14 14 14 14 13 13 12 12 12 12 12 12 12 12 11 11 11 11 11 11 11 11 11 11 12 11 11 11 11 11 11 12 12 12 12 12 12 12 12 13 13 13 14 13 13 14 14 13 13 13 13 13 14 14 13 13 14 13 13 13
16 16 16 16 16 16 15 15 15 15 15 15 15 15 15 15 15 15 15 15 15 15 15 15 15 15 14 14 14 14 13 13 13 12 12 12 12 12 12 12 11 11 11 11 11 11 11 11 11 12 11 11 11 12 11 11 11 11 11 12 12 11 11 12 12 13 13 13 13 13 13 13 13 13 13 13 13 13 13 12 12 12 12 12 12
16 16 16 16 16 16 15 15 16 15 15 15 15 15 15 15 15 15 15 15 15 15 15 15 15 15 15 14 14 14 14 13 13 13 12 12 12 12 12 12 11 11 11 11 11 11 11 11 11 11 11 11 12 12 12 12 12 11 11 12 11 11 11 11 12 12 13 13 13 13 13 13 13 13 13 13 13 13 13 12 12 12 12 12 12
16 16 16 16 16 16 16 16 16 15 15 15 15 15 15 15 15 15 15 15 15 15 15 15 15 15 15 14 14 14 14 13 13 13 13 12 12 12 11 11 11 11 11 11 11 11 11 11 11 11 11 12 12 12 12 12 12 12 11 12 11 11 11 12 11 12 12 12 12 12 12 13 13 13 13 13 13 13 13 13 12 12 12 12 13
16 16 16 16 16 16 16 16 16 16 16 16 15 15 15 15 15 15 15 15 15 15 15 15 15 15 15 15 14 14 14 13 13 13 13 13 12 12 11 11 11 11 11 11 11 11 11 11 11 11 11 12 12 12 12 12 12 12 11 11 11 11 11 11 11 11 12 12 12 12 12 12 13 13 13 13 13 13 13 13 13 13 13 13 13
16 16 16 16 16 16 16 16 16 16 16 16 16 16 16 15 15 15 15 15 15 15 15 15 15 15 15 15 15 14 14 13 13 13 13 13 13 12 12 11 11 10 11 11 11 11 10 11 11 11 11 12 12 12 12 12 12 12 11 11 11 11 11 11 11 11 11 11 11 12 12 12 12 12 12 13 13 13 13 13 13 13 13 13 13
16 16 16 16 16 16 16 16 16 16 16 16 16 16 16 16 16 16 15 15 15 15 15 15 15 15 15 15 15 15 14 14 13 13 13 13 13 12 12 11 11 10 10 10 10 10 11 11 11 11 12 12 12 12 12 12 12 12 11 11 11 11 11 11 11 11 11 11 11 11 11 11 11 12 12 12 12 13 13 13 13 14 14 13 13
17 17 16 16 16 16 16 16 16 16 16 16 16 16 16 16 16 16 16 15 15 15 15 15 15 15 15 15 15 15 14 14 13 13 13 13 13 12 12 12 11 11 10 10 11 11 11 11 12 12 12 12 12 12 12 12 12 11 11 11 11 11 11 10 11 11 11 11 11 11 11 11 11 11 12 12 12 13 13 13 13 14 14 14 14
17 17 17 16 16 16 16 16 16 16 16 16 16 16 16 16 16 16 16 15 15 15 15 15 15 15 15 15 15 15 14 14 13 13 13 13 13 12 12 12 12 11 11 11 11 11 11 12 12 12 12 12 12 12 12 12 12 11 11 11 11 11 10 10 10 10 10 10 10 10 10 10 11 11 11 12 12 12 13 13 13 14 14 14 14
17 17 17 17 17 16 16 16 16 16 16 16 16 16 16 16 16 16 16 16 15 15 15 15 15 15 15 15 15 15 14 14 14 13 13 13 13 13 12 12 12 12 12 12 12 12 12 12 12 12 12 12 12 12 12 12 12 11 11 11 11 10 10 10 10 10 10 10 10 10 10 10 11 11 11 11 12 12 12 12 13 13 13 14 14
17 17 17 17 17 17 17 17 16 17 17 17 16 16 16 16 16 16 16 16 16 16 15 15 15 15 15 15 15 15 14 14 14 14 13 13 13 13 13 12 12 12 12 12 12 12 12 12 12 12 12 12 12 12 12 12 12 11 11 11 11 10 10 10 10 10 10 10 10 10 10 10 10 11 11 11 11 11 11 12 12 12 12 13 13
17 17 17 17 17 17 17 17 17 17 17 17 16 16 16 16 16 16 16 16 16 16 16 16 16 16 16 15 15 15 14 14 14 14 13 13 13 13 13 12 12 13 13 12 12 12 12 12 12 11 12 11 11 12 11 11 11 11 11 11 11 10 10 10 10 10 10 10 9 9 10 10 10 10 10 10 10 11 11 11 11 11 12 12 12
17 17 17 17 17 17 17 17 17 17 17 17 16 16 17 16 16 16 16 16 16 16 16 16 16 16 16 16 15 15 15 14 14 13 13 13 13 13 12 12 12 12 12 12 12 12 12 12 11 11 11 11 11 11 11 11 11 11 11 11 11 10 10 10 10 10 10 9 9 9 9 9 9 9 10 10 10 10 10 10 11 11 11 11 11
17 17 17 17 17 17 17 17 17 17 17 16 17 17 17 16 16 16 16 16 16 16 16 16 16 16 16 16 16 15 15 15 14 13 13 13 12 12 12 12 12 12 12 12 12 12 12 12 11 11 11 11 11 11 11 11 11 11 11 11 11 10 10 10 10 10 9 9 9 9 9 9 9 9 9 9 9 10 10 10 10 10 10 10 10
17 17 17 17 17 17 17 17 17 17 17 17 17 17 17 17 16 16 16 16 17 17 16 16 16 16 16 16 16 16 15 15 14 13 13 12 12 12 12 12 12 12 12 12 12 12 12 12 11 11 11 11 11 11 11 11 11 11 11 11 10 10 10 10 9 9 9 9 8 8 8 8 8 8 8 9 9 9 9 9 10 9 9 9 9
17 17 17 17 17 17 17 17 17 17 17 17 17 17 17 16 16 17 17 17 17 17 17 17 17 16 16 16 16 16 15 15 15 14 13 13 12 12 11 11 12 12 12 12 12 12 12 12 11 11 11 11 11 11 11 11 11 11 11 11 10 10 10 10 9 9 9 8 8 8 8 8 8 8 8 8 8 8 9 9 9 9 9 9 9
17 17 17 17 17 17 17 17 17 17 17 17 17 17 17 16 16 17 17 17 17 17 17 17 17 17 17 16 16 16 15 15 15 14 13 13 13 12 12 11 11 12 12 12 12 12 11 11 11 11 11 11 11 11 11 11 11 11 11 11 11 10 10 9 9 9 8 8 8 8 8 8 8 8 8 8 8 8 8 8 8 8 8 8 8
17 17 17 17 17 17 17 17 17 17 17 17 17 17 17 17 17 17 17 17 17 17 17 17 17 17 17 16 16 15 15 15 14 14 13 13 13 13 12 12 12 12 12 12 12 12 11 11 11 11 11 11 11 11 11 11 11 11 11 10 10 10 10 9 9 9 8 8 8 8 8 8 8 8 8 8 8 8 8 8 8 8 8 8 8
18 18 18 18 17 17 17 17 17 17 17 17 17 17 17 17 17 17 17 17 17 17 17 17 17 17 17 16 16 15 15 14 14 14 13 13 13 13 13 12 12 12 12 12 12 12 12 11 11 11 11 11 11 11 11 11 11 11 11 10 10 10 10 9 9 9 9 8 8 8 8 8 8 8 8 8 8 8 8 8 8 8 8 8 8
18 18 18 18 18 18 17 17 17 17 17 17 17 17 17 17 17 17 17 17 17 17 17 17 17 17 16 16 15 15 15 14 14 14 14 13 13 13 13 13 12 12 13 13 13 12 12 11 11 11 11 11 11 11 11 11 11 11 11 11 10 10 10 9 9 9 9 8 8 8 8 8 8 8 8 8 8 8 8 8 8 8 8 8 8
18 18 18 18 18 18 18 18 18 18 18 18 18 17 17 17 17 17 17 17 17 17 17 17 17 16 16 16 15 15 15 15 14 14 14 14 13 13 13 13 13 13 13 13 13 12 12 11 11 11 11 11 11 11 11 11 11 11 11 10 10 9 9 9 9 9 9 8 8 8 8 8 8 8 8 8 8 8 8 7 8 8 8 8 8
18 18 18 18 18 18 18 18 18 18 18 18 18 18 18 18 18 18 18 18 18 17 17 17 17 16 16 16 15 15 15 15 15 14 14 14 14 13 13 13 13 13 13 13 13 12 12 12 11 11 11 11 11 11 11 11 11 11 10 10 10 9 9 9 9 9 9 8 8 8 8 8 8 8 8 8 8 8 8 7 7 8 7 7 7
19 19 19 19 19 18 18 18 18 18 18 18 18 18 18 18 18 18 18 18 18 17 17 17 17 17 17 16 15 15 15 15 15 14 14 14 14 14 14 13 13 13 14 13 13 13 12 12 12 11 11 11 11 11 11 11 11 11 10 10 10 9 9 9 9 9 9 8 8 8 8 8 8 8 8 8 7 7 8 8 8 7 7 7 7
19 19 19 19 19 19 18 18 18 18 18 18 18 18 18 18 18 18 18 18 18 18 17 17 17 17 17 16 16 16 15 15 15 15 14 14 14 14 14 14 14 14 14 14 13 13 12 12 12 11 11 11 11 11 11 11 11 11 10 10 10 9 9 9 8 8 8 8 8 8 8 7 7 7 7 7 7 7 7 7 7 7 7 7 7
19 19 19 19 19 19 19 19 19 19 19 18 18 19 19 19 19 18 18 18 18 18 18 18 17 17 17 17 16 16 16 15 15 15 14 14 14 14 14 14 14 14 14 14 13 13 12 12 12 12 11 11 11 11 11 11 11 11 10 10 10 9 9 9 8 9 8 8 8 8 8 7 7 7 7 7 7 7 7 7 7 7 7 7 7
19 19 19 19 19 19 19 19 19 19 19 19 19 19 19 19 19 19 19 18 18 18 18 18 18 18 17 17 17 16 16 16 15 15 15 14 14 14 14 14 14 14 14 14 13 13 13 12 12 12 11 11 11 11 11 11 10 10 10 10 10 9 9 9 9 9 9 8 8 8 8 7 7 7 7 7 7 7 7 7 7 7 7 7 7
19 19 19 19 19 19 19 19 19 19 19 19 19 19 19 19 19 19 19 19 19 19 18 18 18 18 18 17 17 16 16 16 15 15 15 15 15 15 15 15 14 14 14 14 14 13 13 13 12 12 12 11 11 11 11 11 11 10 10 10 10 9 9 9 9 9 9 8 8 8 8 8 7 7 7 7 7 7 7 7 7 7 7 7 7
19 19 19 19 19 19 19 19 19 19 19 19 19 19 19 19 19 19 19 19 19 19 19 19 19 18 18 18 17 16 16 16 16 15 15 15 15 15 15 15 15 15 14 14 14 13 13 13 12 12 12 11 11 11 11 11 11 10 10 10 10 9 9 9 9 9 9 9 8 8 8 8 7 7 7 7 7 7 7 7 7 7 7 7 7
19 19 19 19 19 19 19 19 19 19 19 19 19 19 19 19 19 19 19 19 19 19 19 19 19 18 18 18 17 17 17 16 16 16 16 16 16 15 15 15 15 15 14 14 14 13 13 13 13 12 12 11 11 11 11 11 10 10 10 10 10 9 9 9 9 9 9 8 8 8 8 8 7 7 7 7 7 7 7 7 7 7 7 7 7
19 19 19 19 19 19 19 19 19 19 19 19 19 19 19 19 19 19 19 19 19 19 18 18 18 18 18 18 18 17 17 17 16 16 16 16 16 16 16 16 15 15 15 14 14 14 13 13 13 12 12 12 11 11 11 11 11 10 10 10 10 9 9 9 9 9 9 8 8 8 8 8 8 7 7 7 7 7 7 7 7 7 7 7 7
19 19 19 19 19 19 19 19 19 19 19 19 19 19 19 19 19 19 19 19 19 19 19 19 18 18 18 18 18 18 18 17 17 17 17 16 16 16 16 16 15 15 15 14 14 14 13 13 13 13 12 12 11 11 11 11 10 10 10 10 9 9 9 9 9 9 9 8 8 8 8 8 8 7 7 7 7 7 7 7 7 7 7 7 7
19 19 19 19 19 19 19 19 19 19 19 19 19 19 19 19 19 19 19 19 19 19 19 19 18 18 18 18 18 18 18 17 17 17 17 17 16 16 16 16 15 15 15 14 14 14 14 13 13 13 12 12 11 11 11 11 10 10 10 10 9 9 9 9 9 9 9 8 8 8 8 8 7 7 7 7 7 7 7 7 7 7 7 7 7
19 19 19 19 19 19 19 19 19 19 19 19 19 19 19 19 19 19 19 19 19 19 18 18 18 18 18 18 18 18 17 17 17 17 17 17 16 16 16 16 15 15 15 14 14 14 14 13 13 13 12 12 12 11 11 11 11 10 10 10 9 9 9 9 9 9 9 8 8 8 8 8 7 7 7 7 7 7 7 7 7 7 7 7 8
19 19 19 19 19 19 19 19 19 19 19 19 19 19 19 19 19 19 19 18 18 18 18 18 18 18 18 18 18 18 17 17 17 17 17 17 16 16 16 16 15 15 15 14 14 14 14 13 13 13 12 12 12 11 11 11 11 10 10 10 10 10 9 9 9 9 9 8 8 8 8 7 7 7 7 6 6 7 7 7 7 7 7 7 7
20 20 19 19 19 19 19 19 19 19 19 19 19 19 19 19 19 19 19 18 18 18 18 18 18 18 18 18 18 18 17 17 17 17 17 17 16 16 16 16 15 15 15 14 14 14 13 13 13 13 12 12 12 12 11 11 11 11 10 10 10 10 9 9 9 9 8 8 7 7 7 7 7 7 7 6 6 6 7 7 7 7 7 7 7
Height
837 838 838 838 838 838 839 839 838 837 836 836 835 835 834 833 833 832 830 829 828 826 826 825 824 823 821 820 818 816 815 813 812 810 810 809 808 807 806 806 805 805 804 804 803 802 802 801 801 800 799 797 796 795 794 793 792 790 789 788 786 785 784 782 782 780 777 776 774 773 771 770 768 768 767 766 764 764 763 762 762 762 762 762 762
838 838 839 839 839 839 840 839 838 838 838 837 836 836 835 835 834 833 831 830 829 828 827 826 825 824 822 820 819 817 816 814 812 811 810 810 809 808 808 807 807 806 805 805 805 804 803 802 802 801 800 799 797 796 795 794 793 792 790 789 788 787 786 784 782 781 778 776 775 774 773 771 770 769 768 767 766 764 763 763 763 762 762 762 762
838 839 839 840 840 840 840 840 839 839 838 838 837 837 836 836 835 833 832 831 830 829 828 827 826 824 823 821 820 818 817 815 814 813 812 811 810 810 809 809 809 808 807 807 806 805 804 804 803 803 801 800 799 798 797 795 794 793 792 791 789 788 786 785 783 782 780 778 776 775 774 774 773 772 770 769 768 766 764 764 763 763 762 762 761
839 839 840 841 841 841 841 840 840 840 839 839 838 838 837 836 836 834 833 832 831 830 830 828 827 825 824 823 821 820 818 817 816 814 813 813 812 811 811 811 810 810 809 808 808 807 806 805 805 804 802 801 800 799 797 796 795 794 793 792 790 789 787 786 784 783 781 780 778 777 776 775 775 774 772 771 770 769 767 766 764 763 763 762 761
840 840 841 842 842 842 842 841 841 841 840 840 839 839 838 837 837 836 834 833 832 832 831 829 828 827 825 824 823 821 820 819 817 816 815 814 813 813 813 812 812 811 810 810 809 808 807 807 806 805 803 802 801 800 798 797 796 795 794 793 791 790 788 786 785 783 782 780 779 778 777 776 776 775 774 773 771 771 770 769 767 766 765 764 763
841 841 842 842 842 843 842 842 842 842 841 840 840 840 839 838 838 837 836 835 833 833 832 831 830 829 828 826 824 823 821 820 819 817 816 815 815 814 814 814 813 812 811 811 810 809 808 808 807 806 804 803 802 800 799 798 797 796 794 793 792 790 789 787 786 784 783 781 780 779 778 777 777 776 776 775 774 773 772 771 769 769 768 767 767
842 842 843 842 843 843 843 843 843 843 842 841 841 840 839 839 838 837 837 836 834 833 833 832 831 830 829 828 826 825 823 821 820 819 818 817 816 816 815 815 814 814 813 812 811 810 809 809 808 806 805 804 803 801 800 798 797 796 795 793 792 791 790 788 787 785 784 782 781 780 780 779 778 778 778 777 775 775 774 773 772 771 770 769 769
842 843 843 843 844 844 844 844 843 843 843 842 842 841 840 840 839 838 838 837 836 834 833 833 833 831 831 829 828 826 824 823 822 820 819 818 818 817 817 816 816 815 814 813 812 811 810 809 808 807 806 804 803 802 801 800 798 796 795 794 793 792 791 790 788 787 785 784 783 782 781 780 779 779 778 776 776 776 776 776 775 774 772 771 770
843 844 844 844 844 844 844 844 843 843 843 842 842 842 841 841 840 839 838 837 836 835 834 834 833 832 832 831 830 828 826 824 823 822 821 820 819 819 818 818 817 816 815 814 812 811 810 809 808 807 806 804 803 802 801 800 799 797 796 794 793 792 792 791 790 788 787 786 785 784 783 782 782 780 779 779 779 780 779 778 777 775 773 772 770
844 844 844 844 844 844 844 844 844 844 843 843 843 842 842 841 840 840 839 838 837 836 836 835 834 834 833 832 831 829 827 826 824 823 822 821 820 820 819 819 818 817 816 814 814 812 811 810 808 807 805 803 803 802 801 800 799 798 797 795 794 793 792 792 791 790 789 788 787 786 785 785 784 783 782 782 782 781 780 778 777 775 774 772 771
844 844 844 844 844 844 844 844 844 844 843 843 843 842 842 841 841 840 839 839 838 837 837 836 835 835 834 833 832 830 828 827 825 824 823 822 821 821 820 820 818 818 817 816 815 813 811 810 808 806 805 804 803 802 801 800 799 798 798 796 795 794 793 793 792 791 791 790 789 788 787 786 786 785 784 783 782 781 780 780 779 777 776 775 774
844 845 845 845 845 844 844 844 844 844 843 843 843 842 842 842 841 840 839 839 839 838 837 837 836 835 834 833 832 831 830 828 826 825 824 823 822 821 821 821 819 819 818 817 816 814 812 810 809 807 806 805 804 803 802 801 799 799 798 796 796 795 794 794 794 793 792 791 790 789 788 787 787 786 785 784 783 782 781 780 780 779 778 778 777
845 845 845 846 845 844 844 844 844 844 843 843 843 843 842 842 841 841 840 839 839 838 838 837 836 836 835 834 833 832 831 830 828 826 825 824 823 822 822 822 821 820 819 818 817 815 813 812 810 809 808 806 805 804 803 802 800 799 798 797 796 795 795 794 794 794 793 792 791 790 789 788 787 787 786 785 784 783 782 781 780 780 779 778 777
845 845 845 845 845 844 844 844 844 844 843 843 843 842 842 842 841 841 840 840 839 839 838 837 837 836 835 835 834 833 832 831 829 828 826 825 825 823 823 822 822 821 820 819 818 816 815 813 812 811 809 808 807 806 804 803 801 800 798 797 797 796 795 795 794 793 792 791 790 790 789 788 788 787 787 786 785 784 783 782 781 780 780 779 778
845 845 845 845 845 844 844 844 844 844 843 843 843 842 842 842 841 841 841 840 840 839 839 838 837 836 836 835 835 834 833 832 831 829 828 826 826 825 823 823 822 822 821 820 819 817 816 815 813 812 811 809 809 807 806 804 802 801 799 798 797 797 796 795 794 793 792 791 790 789 788 788 788 787 787 786 785 784 783 783 782 781 780 779 778
845 845 845 845 844 844 844 844 844 843 843 843 842 842 842 842 842 841 841 840 840 839 839 838 837 837 836 836 835 834 834 833 832 830 829 827 826 825 824 824 823 823 822 821 819 818 817 816 815 813 812 811 810 808 807 805 804 802 801 799 798 797 796 796 795 794 793 791 790 789 788 787 788 788 787 786 785 785 784 783 782 781 780 779 778
846 845 845 845 845 844 844 844 844 844 843 843 842 842 842 842 842 841 841 840 840 839 839 838 838 837 836 836 835 835 834 833 832 831 830 828 827 826 825 824 824 823 822 821 820 819 818 817 816 815 813 812 811 809 808 806 805 803 802 801 800 798 797 796 795 794 793 792 791 790 789 788 788 788 788 787 785 784 783 782 782 781 781 781 780
846 845 845 845 845 844 844 844 844 844 843 843 843 842 842 842 842 841 841 840 840 840 839 838 838 837 837 836 835 835 834 833 832 831 830 829 828 827 826 825 824 824 823 821 820 819 818 818 817 816 814 812 811 810 808 807 805 804 803 801 800 799 798 797 796 795 794 792 792 791 790 790 789 789 788 787 786 785 783 783 783 783 782 782 781
845 845 845 845 845 844 844 844 844 843 843 843 843 843 842 842 842 841 841 840 840 840 839 838 838 837 837 836 835 835 834 833 832 832 830 829 828 827 826 825 824 823 822 821 820 819 818 818 817 816 814 813 812 810 809 808 806 805 804 802 801 800 799 798 797 796 795 793 793 792 791 791 790 789 789 787 786 786 785 784 784 783 783 782 782
845 846 845 845 845 844 844 844 844 843 844 843 843 843 842 842 842 841 841 840 840 839 839 838 838 837 837 836 835 835 834 833 832 832 830 830 828 827 826 825 824 823 822 821 820 819 818 817 816 815 814 813 812 810 809 808 807 806 804 803 802 801 800 799 799 797 796 795 794 793 792 791 790 789 788 787 787 786 786 785 784 784 783 783 782
845 846 846 845 845 845 844 844 844 843 843 843 843 842 842 842 841 841 840 840 839 839 839 838 838 837 837 836 835 834 833 833 832 831 831 830 828 827 826 825 824 823 822 821 820 819 818 817 816 815 814 813 812 810 809 808 807 806 805 804 803 802 801 800 799 797 796 795 794 794 792 792 791 790 789 788 787 787 786 785 785 784 783 783 782
846 846 845 845 845 845 844 844 844 844 844 843 843 842 842 841 841 841 840 840 839 839 838 837 837 837 836 835 835 834 833 833 832 831 831 830 828 827 826 825 824 823 821 821 820 819 819 817 816 815 814 813 811 810 810 809 807 806 805 805 804 803 802 801 799 798 797 796 795 794 793 792 791 790 789 789 788 787 786 785 785 784 783 783 782
846 845 845 845 845 844 844 844 844 844 843 843 843 842 842 841 841 840 840 839 838 838 837 837 836 836 835 835 834 833 833 832 831 831 830 829 828 827 826 825 824 823 822 821 820 819 818 817 816 815 814 812 812 811 811 810 808 807 806 805 805 804 802 801 800 798 797 796 796 795 794 793 792 791 791 790 789 788 787 785 784 783 782 782 782
846 845 845 845 844 844 844 844 844 843 843 843 842 842 841 841 841 840 839 839 838 837 836 836 835 835 834 834 833 833 832 832 831 830 829 829 828 827 826 825 824 823 822 821 821 820 818 817 816 815 814 813 813 812 811 810 809 808 807 806 805 804 803 802 800 799 798 797 796 796 795 794 793 792 792 791 789 788 787 786 785 783 782 782 782
845 845 845 844 844 844 843 843 843 843 842 842 842 841 841 840 840 839 839 838 837 837 836 835 834 834 833 833 832 832 831 831 831 830 829 828 828 827 826 825 824 823 823 822 821 820 818 817 816 815 815 814 814 813 812 811 810 809 808 807 806 805 804 802 801 800 799 798 797 797 796 795 794 794 792 791 789 788 787 786 785 783 783 782 782
845 844 844 844 843 843 843 843 843 842 842 842 841 840 840 839 839 839 838 837 837 836 835 834 833 833 832 832 831 831 830 830 830 829 828 828 827 826 826 825 824 824 823 822 822 820 819 817 817 816 816 816 815 814 813 811 810 810 809 808 807 806 804 803 802 801 800 799 799 798 797 796 795 794 792 791 790 789 788 787 786 784 783 783 782
844 844 843 843 843 843 842 842 842 842 841 841 840 840 839 838 838 838 837 836 836 835 834 833 832 832 831 831 830 830 829 829 828 828 827 827 826 826 825 824 824 823 823 822 822 821 820 819 818 818 817 816 815 814 813 811 811 810 809 808 807 806 805 804 803 802 801 801 800 799 798 797 795 794 793 792 791 790 789 788 787 786 785 784 782
844 843 842 842 842 842 842 841 841 841 841 840 840 839 838 838 837 836 836 835 834 833 833 832 831 830 829 829 828 828 827 827 827 826 826 826 826 825 824 824 823 823 822 822 821 821 821 820 819 818 817 816 815 814 813 812 811 810 810 809 808 807 806 805 804 803 802 802 801 799 798 797 796 795 794 793 792 791 791 790 789 788 787 785 784
843 842 841 841 841 841 841 841 840 840 840 839 839 838 837 837 836 835 834 834 833 832 831 830 829 829 828 827 827 826 825 825 825 825 825 825 825 824 823 823 822 822 822 822 821 821 821 820 819 819 817 816 815 814 813 813 812 811 811 809 809 808 807 806 805 804 803 802 801 800 799 798 797 796 795 794 794 793 792 791 790 789 788 787 786
842 842 841 841 841 841 840 840 839 839 839 838 837 837 836 836 835 834 833 832 831 831 830 829 828 827 826 825 825 824 824 824 823 823 824 823 823 823 822 822 822 821 821 821 821 821 820 820 820 819 818 817 815 815 814 813 812 812 811 810 809 809 808 807 806 805 804 803 802 801 800 799 798 797 796 796 795 794 793 792 792 791 790 789 788
842 842 841 841 841 840 839 839 838 838 837 837 836 835 834 834 833 832 832 831 830 829 828 827 826 825 824 823 823 822 822 822 821 821 821 821 821 821 821 821 821 820 820 820 820 820 819 820 820 819 818 817 816 815 815 814 813 812 812 811 810 809 808 808 807 806 805 804 803 802 801 800 800 799 798 797 797 796 795 794 793 792 791 791 790
841 841 840 840 839 839 838 838 837 837 836 835 835 834 833 832 831 831 830 829 828 827 826 825 824 823 822 822 821 821 821 820 819 819 819 819 819 819 819 819 819 819 819 819 819 818 818 819 819 819 818 817 816 815 815 814 813 813 812 811 811 810 809 809 808 807 806 805 804 803 802 802 801 800 799 799 798 797 796 795 794 793 793 792 792
840 840 839 839 838 838 837 837 836 835 834 834 833 832 832 831 830 829 828 827 826 825 824 823 822 821 821 820 820 819 819 818 818 818 817 817 817 817 817 817 818 818 818 817 817 817 817 817 818 818 818 817 816 815 814 814 813 813 812 812 811 810 810 809 808 808 807 806 805 804 803 803 803 802 801 800 799 798 797 796 795 794 793 793 793
839 838 838 838 837 837 836 836 835 834 833 833 832 831 830 830 829 828 827 826 824 823 822 822 821 820 819 819 818 818 818 817 817 816 816 816 816 816 815 816 816 816 816 816 816 816 816 816 817 818 818 817 816 815 814 813 813 812 812 812 811 810 810 810 809 808 808 807 806 806 805 804 804 803 802 801 800 799 798 797 797 796 795 794 794
837 837 837 836 836 835 835 834 834 833 832 832 831 830 830 829 828 827 826 825 823 822 821 820 820 819 818 818 817 817 816 816 815 815 815 814 814 814 814 814 814 815 815 815 815 815 815 815 816 817 817 817 816 815 814 813 813 812 811 811 811 811 810 810 809 808 808 808 807 806 806 805 804 803 803 802 801 800 800 799 798 797 796 795 795
836 836 835 835 835 834 834 833 832 832 831 830 830 829 829 828 827 826 825 824 823 822 820 819 818 817 817 817 816 816 815 815 814 814 813 813 813 813 813 813 813 813 813 814 814 814 814 814 815 816 816 816 815 814 814 813 812 811 810 810 811 811 810 810 809 809 808 808 807 807 806 805 805 804 803 803 802 801 801 800 799 798 797 796 795
835 834 833 833 833 833 832 832 831 830 829 829 828 828 827 826 826 825 824 823 822 821 820 819 818 817 816 816 815 814 814 813 813 812 812 812 811 811 811 811 811 811 812 812 813 813 813 813 813 814 815 815 814 814 813 812 812 811 809 809 810 811 810 810 809 808 808 807 807 807 806 805 804 804 803 803 802 802 801 800 799 799 798 797 796
833 833 832 832 832 831 831 830 829 828 828 827 827 826 825 825 824 823 823 822 821 820 819 818 817 816 815 814 814 813 812 812 811 811 811 810 810 810 810 810 810 810 810 810 811 811 811 811 811 812 814 814 813 813 812 812 811 810 810 810 811 811 810 810 809 808 808 807 807 807 806 805 804 804 804 803 803 802 802 801 800 799 798 797 796
832 831 831 831 830 830 829 828 827 827 827 826 825 824 824 823 823 822 821 820 819 818 817 817 816 815 814 813 812 812 811 811 810 810 809 809 809 809 809 809 808 809 808 809 809 810 809 809 810 811 812 812 812 812 811 811 810 810 810 811 811 811 810 810 809 809 808 807 807 807 806 806 805 805 804 804 803 803 802 801 800 800 799 798 797
830 830 830 829 829 828 827 826 826 825 825 824 824 823 822 822 821 820 819 818 817 816 815 815 814 813 813 812 811 810 810 809 809 809 808 808 808 808 808 807 807 807 807 807 808 808 808 808 809 810 810 810 810 810 810 810 809 809 810 810 811 811 810 810 810 809 808 807 807 806 806 806 805 805 804 804 803 803 802 801 800 800 799 798 797
828 828 828 827 827 827 826 825 825 824 823 823 822 821 821 820 819 818 817 816 814 814 813 812 811 811 811 810 809 809 808 807 807 807 807 807 807 806 806 806 806 805 805 806 806 806 806 806 807 808 808 809 809 809 809 809 808 808 808 809 809 809 810 810 810 809 808 807 807 806 806 805 805 805 804 804 803 803 802 801 801 800 800 799 798
827 827 826 826 826 825 824 824 823 822 822 822 821 820 819 818 817 816 815 813 813 812 811 810 809 809 809 808 808 807 807 806 806 806 806 805 805 805 804 804 804 804 804 804 804 804 804 805 805 806 806 807 807 807 808 808 807 807 807 807 807 807 808 808 809 809 808 807 806 806 805 805 805 804 804 804 803 802 802 801 801 800 800 799 798
825 825 825 824 824 824 823 822 822 821 821 820 820 819 818 816 815 814 813 812 811 810 809 808 807 807 806 806 806 806 805 805 805 804 804 803 803 803 802 802 802 802 802 802 802 803 803 803 804 805 805 805 806 806 806 806 806 806 806 805 805 806 806 807 808 808 807 806 806 805 804 804 804 804 804 803 803 802 802 801 801 800 800 799 798
824 823 823 823 822 822 822 821 820 820 820 819 819 817 816 815 814 812 811 810 810 808 808 807 806 805 805 804 804 804 803 803 803 803 802 801 801 800 800 800 800 801 801 801 801 802 802 802 803 804 804 805 805 805 806 806 805 805 805 804 804 804 804 805 806 806 806 806 805 805 804 803 803 803 803 803 803 802 802 801 801 800 800 799 798
822 822 822 821 821 820 820 819 819 818 818 818 818 816 815 814 812 811 810 809 808 807 806 805 804 804 803 802 802 802 801 801 801 800 800 799 799 798 798 798 798 799 799 799 800 800 801 801 802 802 803 804 804 804 804 805 804 804 804 804 804 804 804 804 804 805 805 805 804 803 803 803 802 802 802 802 802 802 801 801 801 800 799 799 798
821 820 820 820 819 819 818 818 817 817 817 817 816 815 814 812 811 809 808 807 806 806 805 804 803 802 801 800 800 799 799 799 799 798 798 797 797 796 797 796 796 797 797 798 798 799 799 799 800 800 801 801 802 802 803 803 803 803 803 803 803 803 803 803 803 803 803 803 803 802 802 801 801 801 801 801 801 801 801 801 800 800 799 799 798
819 818 818 818 818 817 817 816 816 816 816 816 815 813 812 811 809 808 808 807 806 805 804 802 802 801 800 799 798 797 797 797 796 796 796 795 795 795 795 795 795 795 795 796 797 797 797 797 798 798 799 799 800 801 802 802 802 802 802 802 802 802 802 802 802 802 802 801 801 801 800 800 800 800 800 800 800 800 800 800 800 799 799 798 797
817 817 817 817 816 816 815 815 815 815 815 814 813 812 811 810 808 808 807 806 805 804 803 802 801 799 798 798 797 796 796 795 795 794 794 794 793 793 793 792 793 793 794 794 795 795 795 795 796 796 797 798 798 799 800 800 800 800 800 801 801 801 801 801 801 800 800 800 799 799 798 798 798 798 798 799 799 799 799 799 799 798 798 798 797
815 815 815 815 815 814 814 814 814 814 813 812 812 811 809 808 807 806 805 805 804 803 802 801 800 799 797 796 795 795 794 794 794 793 792 792 792 792 791 791 791 792 792 792 793 793 793 794 794 795 796 796 797 798 798 798 798 799 799 799 799 799 799 799 799 799 799 798 798 797 797 797 797 797 797 798 798 798 798 798 798 798 798 797 797
813 813 813 814 813 813 813 813 813 812 811 811 810 809 808 807 806 805 804 803 802 801 801 799 798 798 796 795 794 794 793 793 792 791 791 790 790 790 790 790 790 790 790 791 791 791 792 792 793 793 794 795 795 796 796 796 796 797 797 797 797 798 798 798 798 798 797 797 797 796 796 795 795 796 796 796 797 797 797 797 797 797 797 797 796
811 811 812 811 811 812 812 811 810 810 809 809 808 808 807 806 805 803 802 802 801 800 799 798 797 796 795 794 794 793 792 791 791 790 789 789 789 788 788 788 788 788 788 789 789 789 790 791 791 792 793 793 793 794 794 794 794 795 795 795 795 796 796 797 797 797 796 796 795 795 795 794 794 795 795 795 796 796 796 797 797 796 796 796 795
Wind_Speed
15 16 16 16 17 17 16 15 15 15 15 17 17 17 15 15 14 13 13 17 16 13 12 15 17 19 22 25 27 28 24 19 15 13 12 15 20 22 20 20 21 20 18 18 17 18 19 19 19 19 17 18 19 19 18 17 17 18 18 19 19 19 18 14 7 5 10 16 18 19 16 13 14 17 18 17 15 14 12 11 9 6 4 3 5
17 16 16 16 16 16 15 14 14 14 14 15 16 16 15 15 14 13 15 18 15 12 13 16 18 21 24 26 29 29 24 19 15 13 13 17 20 20 19 18 19 19 19 19 18 18 19 20 21 20 19 18 18 18 17 16 16 17 18 18 19 18 17 15 11 7 9 15 19 18 16 16 17 16 17 18 16 15 15 16 15 14 11 8 5
17 16 16 15 15 14 14 14 13 13 14 14 15 15 15 15 14 14 17 18 15 15 16 18 20 23 26 28 29 27 23 21 19 15 15 18 20 19 19 18 18 18 19 19 19 18 19 21 22 21 20 19 18 17 16 15 15 16 17 17 17 17 16 15 13 9 9 12 17 17 16 17 19 17 16 16 15 15 16 17 17 17 15 13 11
16 16 15 15 14 14 14 14 14 13 13 14 14 15 15 15 15 16 19 18 15 15 17 19 22 26 27 28 28 25 22 22 22 18 16 18 19 19 18 18 18 18 18 17 17 17 18 20 21 21 21 21 19 17 16 15 14 15 15 16 16 16 16 14 13 10 8 10 14 16 15 16 19 19 16 15 15 15 17 18 18 17 16 14 13
15 15 15 14 14 14 14 14 13 12 12 12 13 13 14 14 14 15 18 19 16 14 16 19 23 26 27 28 27 23 21 22 23 21 18 17 18 18 17 17 17 17 17 16 16 17 18 18 18 20 22 21 18 17 17 16 15 15 15 15 16 15 14 13 13 11 10 10 12 15 15 15 18 20 19 18 16 15 15 18 20 18 17 17 16
15 15 14 14 14 13 12 13 12 10 11 12 12 12 12 12 13 12 14 17 17 14 14 18 21 24 26 27 27 23 20 21 23 22 19 17 16 16 16 16 16 16 16 16 16 17 18 17 17 19 21 20 18 16 16 16 17 16 16 16 15 13 12 13 13 12 13 12 12 15 17 17 18 19 20 20 20 20 18 17 20 20 17 17 18
15 15 14 14 14 12 11 11 10 9 10 12 11 12 12 12 12 12 11 13 15 13 13 15 17 21 24 25 26 25 21 20 21 21 19 17 16 15 15 15 15 15 15 15 15 15 16 17 18 18 19 18 17 16 15 17 18 17 17 16 13 11 11 12 13 13 14 14 14 15 16 17 18 18 19 18 19 23 24 20 19 19 16 14 16
13 12 12 13 14 12 10 10 10 10 10 11 10 10 11 11 11 12 12 13 14 13 12 12 14 18 20 21 24 25 24 20 19 19 18 16 15 14 13 13 13 13 14 14 14 14 14 16 17 17 17 17 16 15 15 17 19 19 19 15 10 9 11 12 14 15 14 14 13 14 16 17 18 19 21 21 19 20 23 20 18 19 16 12 14
12 10 10 12 13 12 9 9 10 12 12 11 9 9 9 10 10 11 11 11 14 14 12 11 12 15 16 17 20 24 26 22 17 16 16 14 13 12 11 11 12 12 12 12 13 13 15 16 16 16 16 16 14 14 15 16 17 18 18 15 11 10 13 14 15 15 15 14 12 12 14 15 17 18 20 21 18 17 18 18 17 18 17 12 12
10 9 9 11 12 10 8 8 9 11 12 10 9 9 9 9 9 9 7 8 11 12 10 10 11 13 14 15 17 21 25 23 16 13 15 12 11 11 10 10 12 12 11 11 12 14 16 17 15 15 17 17 14 14 14 14 16 16 16 15 14 13 14 15 16 16 15 14 12 12 11 11 13 15 15 16 16 15 17 18 18 18 17 12 10
9 9 9 9 10 9 7 8 9 9 10 9 8 8 8 7 7 8 6 6 8 9 8 8 10 11 12 13 15 19 23 23 17 13 14 12 9 9 10 11 12 12 12 12 14 16 17 17 15 15 18 18 16 15 15 14 15 15 15 15 17 16 15 14 15 16 15 13 12 11 10 9 11 12 13 14 15 15 15 15 15 16 16 12 8
9 9 8 7 7 7 7 8 8 8 8 8 8 7 7 7 8 9 8 6 6 7 8 8 9 10 11 11 13 17 21 22 18 14 14 14 10 8 9 10 12 12 12 14 16 18 18 17 16 17 18 19 18 18 17 16 15 15 14 14 17 18 17 15 14 14 14 12 10 9 9 9 10 11 12 12 13 13 13 13 13 13 13 11 10
11 10 8 6 5 6 8 9 8 7 6 6 6 6 6 7 7 9 9 7 6 7 7 8 8 9 10 10 11 15 19 21 20 15 13 14 13 9 7 7 9 11 12 13 16 18 18 17 17 18 19 19 19 19 19 18 17 16 16 15 16 17 17 16 14 13 13 12 10 8 7 7 9 10 10 9 10 12 12 11 11 11 11 12 11
12 11 9 6 4 5 7 9 7 6 5 5 5 5 5 5 6 6 7 7 6 6 6 7 7 7 8 9 9 13 17 19 20 17 12 11 13 12 9 6 7 9 11 12 14 16 17 18 18 18 19 20 20 19 19 19 18 18 18 18 18 17 17 16 15 14 13 12 10 8 6 5 7 8 8 8 9 9 9 10 10 10 10 9 8
12 10 9 7 6 5 6 7 6 5 4 4 3 3 3 4 4 5 5 5 5 5 5 5 6 5 6 7 8 10 14 16 18 19 15 10 9 13 13 8 5 7 11 12 12 12 13 16 17 17 17 19 19 18 19 19 19 19 20 19 18 18 18 18 18 17 15 13 11 9 6 5 5 6 8 10 11 9 7 6 7 9 9 8 7
10 9 9 9 9 8 6 6 5 4 3 3 3 2 2 3 4 4 3 3 4 4 3 4 5 4 4 5 6 8 11 13 15 17 17 14 9 10 13 11 7 6 9 11 11 10 10 12 14 14 15 18 19 18 17 17 18 19 20 19 19 18 17 17 17 18 17 16 15 12 7 4 5 8 12 14 14 12 7 5 6 9 11 10 9
9 8 8 9 9 10 9 8 6 5 4 5 4 3 3 4 5 5 3 3 4 4 4 4 4 4 3 4 5 7 9 10 12 14 15 15 11 8 10 12 9 6 6 7 10 12 12 11 11 12 14 17 18 18 17 16 17 18 18 17 18 18 18 17 16 17 17 17 18 16 12 10 10 12 13 15 17 17 12 9 9 9 9 8 8
9 8 7 7 8 8 8 7 6 5 5 5 5 5 4 4 4 4 4 4 4 4 5 5 4 4 3 3 3 5 6 8 11 12 12 13 13 10 8 9 9 9 8 7 9 11 13 13 11 10 13 17 18 17 16 16 16 17 16 15 16 18 19 19 17 17 16 17 18 17 15 14 14 13 12 12 15 17 15 12 9 8 7 6 6
7 6 7 7 7 7 6 5 4 3 3 2 2 3 4 4 4 3 3 4 5 5 6 4 2 4 5 3 3 4 4 5 8 11 11 11 11 10 8 7 8 10 11 9 8 9 11 14 15 11 12 16 17 16 15 14 15 15 14 14 15 15 17 18 17 16 16 17 17 17 16 15 14 14 13 12 12 14 14 11 8 8 9 8 7
5 5 6 5 5 5 6 4 3 2 2 1 1 1 1 2 3 3 3 4 5 7 7 3 1 3 5 4 4 4 2 3 6 8 10 11 9 8 8 7 7 10 9 7 8 9 11 15 17 14 13 16 17 15 12 12 13 13 12 13 14 13 15 16 15 13 15 16 16 16 17 16 15 15 14 12 10 9 10 10 9 8 8 8 7
5 4 3 3 3 3 4 3 2 2 2 1 1 2 1 1 2 3 4 5 5 6 7 4 2 4 5 4 4 4 2 1 3 5 8 10 10 9 8 7 7 8 8 6 6 9 12 16 17 15 14 16 15 12 9 10 13 13 12 13 13 12 13 14 12 12 14 16 16 16 16 17 17 17 16 15 12 9 9 10 10 9 8 7 7
4 2 2 2 2 2 3 3 1 0 1 1 1 3 2 2 3 4 4 5 5 5 6 6 4 6 6 5 4 4 3 2 1 3 6 9 10 9 9 8 8 7 7 7 7 9 13 16 16 16 16 15 12 9 7 10 14 13 12 12 12 13 13 12 12 13 14 16 17 17 18 18 18 18 18 17 15 12 11 12 13 10 8 7 6
4 3 3 3 1 1 3 2 1 1 1 1 2 3 3 3 4 5 4 5 6 6 6 6 6 7 7 6 5 5 4 2 1 0 4 8 10 9 9 11 10 7 6 8 8 11 14 15 16 16 13 11 11 10 8 11 14 13 11 12 14 15 14 13 13 15 16 16 17 18 19 19 19 19 19 18 17 16 14 14 13 11 8 6 5
5 3 3 3 2 2 3 3 2 2 2 2 3 4 5 5 5 5 5 5 5 5 6 6 7 6 6 7 6 5 5 3 2 2 3 7 9 9 9 11 12 9 7 8 10 13 15 14 13 12 12 12 13 11 10 12 13 12 12 14 16 16 14 14 15 17 18 17 17 18 18 18 17 18 19 18 17 15 14 14 15 12 7 6 8
7 5 5 5 4 4 4 4 4 3 3 3 4 6 7 8 8 6 5 5 5 5 6 6 7 6 6 7 6 4 5 4 3 4 1 6 9 9 8 10 12 11 9 9 11 13 13 10 11 13 13 14 14 12 12 13 13 12 12 15 17 16 14 13 15 17 18 17 16 17 17 16 15 16 17 17 17 15 14 15 16 14 10 8 11
8 8 8 6 5 6 5 4 4 3 3 4 5 6 6 7 8 8 6 6 7 7 8 8 9 9 9 8 6 4 5 4 4 5 3 4 7 8 7 9 10 9 8 8 11 14 13 13 13 12 11 12 12 11 12 13 11 11 12 15 16 16 13 12 15 18 17 16 16 16 16 15 14 15 16 17 18 18 18 17 17 17 15 13 13
5 7 11 10 8 7 7 7 6 5 4 5 5 5 5 5 6 8 8 8 8 9 11 11 12 12 12 11 10 8 7 5 5 6 5 3 5 6 6 7 8 7 6 7 11 13 12 12 12 10 9 9 9 8 11 13 11 10 11 13 15 15 13 12 15 17 16 15 15 15 15 15 15 16 18 19 19 20 19 18 17 19 19 17 17
4 3 6 10 11 9 8 8 9 8 6 5 5 6 6 6 6 8 9 10 11 12 13 14 14 14 14 13 13 12 10 8 7 8 6 4 4 4 5 5 6 6 6 6 9 11 9 8 9 10 8 7 6 6 12 15 12 9 10 12 13 14 14 13 14 16 15 14 15 15 15 16 17 18 19 20 20 19 19 18 17 18 19 19 20
4 7 3 4 6 6 5 5 5 6 6 6 6 7 8 8 7 8 9 10 12 14 15 15 16 15 15 15 14 14 14 12 9 8 8 7 6 4 4 4 4 5 5 5 6 9 8 7 6 7 8 7 6 8 14 16 11 8 9 10 11 12 14 13 14 15 15 14 15 16 16 16 17 17 18 18 19 19 18 17 17 18 19 20 21
3 6 4 2 2 1 2 2 2 3 4 5 6 7 8 8 8 9 10 11 12 14 15 17 17 17 17 17 16 16 16 15 12 10 9 8 8 6 5 4 4 4 5 4 5 7 8 6 4 5 7 6 5 8 14 15 9 6 8 9 8 10 13 12 12 14 14 14 15 15 15 16 18 18 17 17 17 17 17 17 18 19 20 20 21
1 4 3 1 1 2 3 3 4 5 6 6 7 8 9 9 9 9 11 12 13 13 14 15 16 17 18 18 18 17 17 16 14 12 10 9 7 7 6 6 4 4 5 4 5 7 6 4 3 4 4 4 4 6 11 13 7 4 7 9 7 8 11 11 11 13 14 14 14 14 14 16 18 18 17 16 15 15 15 16 18 20 20 19 19
1 0 1 3 5 5 5 6 7 8 9 9 9 10 10 11 11 11 10 10 11 12 12 12 13 14 15 17 18 18 17 17 17 15 13 10 8 7 8 9 7 5 5 5 6 7 4 3 4 5 2 3 3 4 8 11 7 4 6 8 7 7 10 10 10 12 14 15 15 14 14 16 18 17 16 15 14 14 16 17 18 20 20 19 19
1 2 3 4 6 7 7 9 10 10 11 11 11 11 11 12 14 13 12 11 11 11 11 11 11 11 12 13 14 14 13 14 15 15 13 11 8 6 8 9 7 6 5 5 7 6 3 4 6 7 4 1 2 4 5 9 9 9 8 6 6 7 9 9 10 12 14 15 15 13 12 14 15 16 16 15 14 15 17 18 19 19 19 19 19
4 4 5 6 8 9 9 11 12 11 11 11 12 12 12 13 14 14 14 14 14 13 12 11 11 11 10 9 8 8 8 10 11 12 11 9 6 4 6 7 6 6 5 4 6 7 3 6 9 8 5 1 1 4 4 6 8 12 12 5 6 8 9 9 10 12 12 13 14 13 11 10 11 12 14 15 15 16 18 18 18 18 18 18 18
6 6 7 8 9 10 11 12 12 12 12 12 12 12 11 12 12 13 14 15 16 16 14 12 11 10 9 8 7 6 7 8 9 9 9 7 5 3 4 5 5 5 5 4 6 8 3 5 10 10 7 1 1 5 4 5 7 11 13 5 6 9 8 9 10 11 11 11 12 11 10 11 10 9 10 12 14 15 16 17 17 16 16 16 17
9 9 10 10 10 11 12 12 12 12 12 12 12 12 11 10 10 11 12 13 14 15 14 12 10 9 8 9 8 7 8 8 7 6 6 6 5 4 4 5 5 5 5 4 5 8 5 4 11 12 8 3 3 5 3 5 8 11 10 3 8 9 9 9 9 10 10 10 10 9 8 11 11 8 7 9 11 11 13 14 14 13 14 14 14
10 11 12 12 12 12 12 12 12 12 12 12 12 12 10 9 9 10 11 12 13 12 12 12 11 8 8 8 8 8 8 7 5 5 5 5 5 4 4 4 5 6 6 5 4 8 6 5 13 13 9 5 4 3 2 3 8 11 8 7 11 9 8 8 8 8 8 9 9 8 9 11 9 6 6 8 10 9 11 12 11 11 14 15 13
11 12 13 13 13 13 12 12 12 12 11 11 10 11 11 10 11 11 12 13 13 12 11 12 12 9 7 7 7 7 7 5 4 3 4 5 5 4 4 4 5 6 7 6 5 7 5 8 16 14 9 7 6 3 1 2 6 9 7 10 12 8 7 7 6 7 7 7 7 7 9 10 8 7 7 8 8 8 9 9 9 12 15 16 14
12 12 12 13 13 12 11 11 11 11 11 10 10 11 11 12 13 14 15 15 15 13 12 12 12 10 7 6 7 7 7 6 5 4 5 5 6 5 5 5 6 7 8 8 6 6 4 10 17 14 10 10 8 4 2 2 5 7 6 9 9 6 5 5 5 6 6 6 5 5 8 9 8 7 7 7 7 7 9 8 8 10 13 14 13
13 12 11 10 10 9 9 9 11 12 12 12 11 11 12 14 15 16 16 16 17 16 15 14 14 12 8 6 7 8 8 7 7 6 6 6 6 6 7 7 7 8 8 8 7 6 6 13 17 15 12 12 10 6 4 3 3 6 6 6 6 5 4 4 5 7 6 6 5 4 6 7 7 6 6 6 4 6 10 10 7 8 11 11 9
13 11 10 9 8 8 8 10 11 12 12 12 12 12 12 14 16 16 17 16 16 16 15 16 17 15 11 8 7 8 9 9 8 8 9 9 8 8 9 9 9 9 10 10 9 7 9 15 19 16 14 14 11 7 5 4 4 5 6 6 6 5 4 4 5 8 9 7 6 5 4 4 5 5 5 5 4 4 8 9 8 8 10 9 7
11 9 8 9 9 9 10 11 11 11 12 13 13 13 12 13 13 15 16 15 13 12 12 13 14 15 14 12 10 10 10 10 9 10 11 11 11 11 11 11 11 11 11 12 11 9 12 17 19 17 15 14 12 9 7 7 6 6 7 8 9 7 4 3 4 8 10 10 9 7 3 2 4 4 4 4 5 4 5 7 7 7 8 8 10
10 8 8 8 9 10 11 12 12 13 14 13 11 8 8 8 9 11 12 12 12 12 12 12 12 12 13 14 12 12 13 12 11 11 12 12 13 13 13 13 13 12 12 12 12 12 14 18 20 18 15 14 12 10 8 8 8 6 7 8 9 7 6 5 3 5 7 9 10 9 4 3 2 3 3 3 4 3 4 6 7 6 6 7 10
9 9 8 8 9 10 12 13 14 14 14 11 7 5 6 8 9 10 12 12 12 12 13 14 13 12 12 14 15 15 15 14 12 12 13 13 14 14 14 14 14 13 13 12 12 13 14 17 19 17 15 14 12 10 9 9 9 7 7 7 8 9 8 7 3 2 4 5 8 10 5 2 4 3 2 2 2 2 4 7 7 6 6 8 10
9 9 9 9 10 12 13 14 14 12 10 9 6 6 7 9 10 13 14 14 14 13 13 14 14 13 11 12 14 16 17 16 15 14 14 14 14 14 14 13 13 14 14 13 13 14 14 14 16 17 16 15 14 12 10 10 10 8 7 6 7 8 8 6 2 1 2 3 6 8 6 1 6 5 3 2 2 1 4 6 5 5 5 8 10
10 10 9 10 12 14 15 14 11 6 6 5 5 6 7 9 11 13 14 14 14 14 15 16 15 13 12 10 10 11 13 15 15 16 16 15 14 14 14 12 11 12 13 12 13 15 14 12 14 17 18 16 15 13 12 11 9 8 7 6 5 6 6 3 1 2 3 3 6 8 7 2 5 7 5 3 2 0 2 3 4 4 4 6 9
11 10 10 11 13 16 16 9 4 6 4 3 4 5 8 11 11 11 10 11 12 12 13 15 15 13 13 13 11 9 9 10 12 14 15 15 14 14 15 14 11 11 12 12 14 16 15 12 13 16 17 16 15 13 12 11 9 8 8 7 5 5 3 2 2 3 4 5 7 9 8 4 5 8 7 5 4 1 1 2 2 3 3 5 8
11 12 12 12 14 16 11 6 7 5 2 2 3 5 8 10 10 9 10 10 10 10 11 13 14 13 13 13 13 12 9 8 9 10 12 14 14 13 13 14 13 12 12 13 15 17 16 13 13 15 16 15 14 13 11 10 9 8 8 8 7 6 5 4 4 5 6 6 8 9 8 5 6 9 9 7 5 2 1 1 1 2 3 5 7
11 12 11 10 11 10 8 10 8 4 2 2 4 5 6 7 9 11 11 10 9 10 11 11 11 13 14 13 12 12 12 10 9 9 11 13 12 11 11 12 13 14 13 14 16 17 16 14 13 14 15 15 14 13 12 11 9 8 8 8 8 7 7 6 5 5 6 7 8 8 7 5 7 9 10 9 7 4 3 3 2 3 5 6 9
8 8 8 9 8 9 12 10 6 5 4 4 5 6 6 7 9 10 9 8 8 9 9 10 11 11 11 11 10 10 11 11 10 11 11 11 11 11 10 11 13 14 15 15 16 17 16 15 14 14 15 15 15 14 13 12 10 8 8 9 9 8 8 7 5 5 6 7 7 6 5 5 7 9 11 11 9 6 5 5 4 5 6 8 10
7 8 10 10 8 14 14 10 8 7 5 6 6 6 6 7 7 7 6 7 8 8 8 9 11 10 9 9 11 11 10 11 12 12 12 12 11 11 11 12 13 14 15 16 17 17 17 16 15 14 15 15 16 16 15 13 11 9 9 10 10 10 9 7 5 4 5 7 7 5 4 5 7 10 12 12 10 8 7 6 5 5 7 8 8
Wind_Direction
117 110 102 97 90 85 80 75 71 68 66 68 68 65 61 58 58 58 46 40 54 80 77 59 50 43 38 33 28 24 21 16 19 37 50 44 44 51 58 60 59 60 62 60 59 58 59 57 49 42 40 39 37 37 37 38 38 37 35 30 30 29 22 15 1 337 4 17 20 26 31 30 29 28 30 33 31 27 31 35 36 30 3 309 239
115 110 104 96 89 85 79 74 69 65 63 63 63 62 60 57 56 53 44 44 61 81 72 58 50 44 39 33 27 25 26 26 28 40 47 44 46 55 60 59 58 61 64 63 61 60 56 52 47 42 40 38 36 34 31 33 36 35 33 29 24 25 24 15 7 348 349 8 21 31 39 39 37 36 36 37 37 39 41 39 34 28 21 12 354
113 107 101 94 89 84 78 73 67 65 65 62 59 59 58 54 51 50 50 56 72 80 68 57 51 44 37 31 26 27 33 35 35 42 44 43 48 57 61 61 62 64 65 63 62 60 55 50 43 39 37 36 34 32 28 28 32 32 31 29 22 20 23 20 13 358 339 356 18 30 38 41 40 40 41 42 44 45 44 40 33 28 25 22 22
107 102 98 95 90 82 75 69 67 69 70 65 61 57 52 50 51 53 56 64 77 77 66 57 49 42 36 30 26 29 37 36 37 43 45 45 52 61 66 66 65 67 66 63 61 59 56 50 43 36 33 32 31 32 31 27 27 28 27 27 22 17 19 23 22 12 350 356 21 34 42 44 42 40 40 43 49 51 47 40 36 35 35 34 34
105 102 100 97 89 80 73 68 67 72 74 72 69 62 54 53 57 57 56 62 72 73 63 56 47 41 37 34 30 33 37 34 34 40 45 49 57 66 71 69 65 66 66 66 64 61 57 51 42 36 32 30 31 31 29 25 23 23 22 21 20 17 19 25 28 30 23 17 27 38 44 44 41 40 40 38 41 45 46 43 40 42 48 49 46
109 109 107 102 94 85 77 72 72 74 75 80 82 77 71 66 65 61 54 57 66 71 64 56 48 41 40 38 35 36 36 31 31 36 42 50 61 71 74 70 66 64 63 67 68 62 55 47 38 34 31 30 32 28 23 22 20 18 16 15 15 17 26 31 34 42 43 41 43 42 40 39 37 36 37 38 38 34 31 34 38 43 51 50 45
110 112 113 110 105 98 90 84 81 79 76 80 90 88 77 65 58 59 56 52 58 70 72 62 50 43 42 39 35 35 34 28 27 32 42 55 65 70 69 64 62 61 58 63 68 62 51 40 33 30 29 30 32 29 20 15 15 16 14 13 16 26 35 38 42 48 50 49 48 43 40 37 34 30 29 35 40 33 26 21 21 29 38 40 34
110 108 112 115 114 111 106 96 84 82 80 78 82 84 73 61 56 58 61 55 55 68 76 65 52 45 41 36 34 34 34 29 25 30 45 62 69 67 64 57 55 57 56 57 59 53 41 35 31 27 26 31 34 31 22 13 13 17 16 15 26 43 47 49 50 52 53 50 45 42 40 35 30 25 24 28 28 22 20 17 9 11 20 31 32
108 104 110 122 126 123 114 100 86 85 89 82 79 84 77 72 72 67 66 68 66 68 68 55 47 44 40 34 32 32 33 31 26 31 46 64 74 70 66 60 54 53 56 56 51 41 33 30 29 25 26 33 37 34 27 20 19 19 18 23 40 57 60 60 56 54 54 47 37 35 37 34 28 23 22 24 21 10 11 15 11 8 12 24 38
101 98 110 126 134 132 116 103 96 93 93 89 88 93 86 79 79 74 77 87 80 71 65 54 48 46 40 34 31 33 34 30 27 36 48 63 79 75 66 60 55 53 56 56 47 37 30 24 22 26 27 31 36 35 31 30 28 23 23 33 47 62 70 66 58 55 53 45 36 32 33 31 28 24 18 14 13 10 10 12 10 9 12 18 28
101 96 106 123 132 136 127 113 107 102 99 94 90 93 85 70 60 57 71 94 84 72 69 62 54 48 42 34 32 36 35 30 30 40 51 63 79 75 63 57 55 54 55 54 45 36 29 21 21 31 31 28 32 34 34 39 39 31 28 34 43 52 63 65 58 52 47 43 39 34 29 21 18 20 15 6 6 6 6 10 12 8 8 7 354
109 101 104 116 123 134 139 130 116 106 102 98 92 89 79 62 47 47 64 90 88 74 67 58 53 49 42 35 35 39 37 32 35 44 52 60 72 79 70 61 57 56 53 49 43 36 31 28 31 36 33 29 31 32 32 39 48 46 42 42 42 43 47 52 52 45 37 34 33 29 23 13 11 18 15 5 2 2 2 13 21 10 0 353 337
113 110 103 102 111 125 134 136 129 114 104 100 93 85 74 65 55 55 69 83 82 75 66 53 48 46 41 37 37 42 39 34 37 45 51 57 64 71 76 71 66 63 55 47 43 38 37 39 38 36 34 31 28 28 29 33 43 52 54 52 50 47 46 48 49 43 32 27 23 20 15 8 10 18 18 11 9 10 12 20 24 12 358 351 348
111 106 93 88 107 120 121 125 125 113 101 100 100 94 82 73 61 55 65 73 67 65 59 47 42 38 39 39 38 43 42 36 37 44 47 55 62 63 68 83 78 64 55 47 41 39 41 43 37 30 30 30 24 22 23 26 34 44 49 51 50 49 47 46 46 42 35 29 20 9 7 16 15 14 24 31 26 22 26 27 23 16 5 358 7
106 96 85 86 95 101 110 116 112 101 96 103 113 102 71 73 61 41 50 64 52 44 43 40 37 31 35 41 44 49 46 39 40 45 44 47 62 61 60 75 91 68 55 43 33 31 35 37 33 24 22 24 22 18 17 21 28 36 41 43 43 43 44 41 39 38 37 38 35 17 2 18 30 33 44 43 32 28 36 30 23 20 7 358 12
107 98 88 86 81 79 92 101 96 93 85 77 83 62 54 79 64 34 42 64 41 24 23 22 21 23 33 41 48 56 53 44 43 47 46 47 61 65 58 64 84 79 55 38 25 19 16 19 23 19 16 17 17 15 15 17 24 30 33 36 37 37 39 40 40 42 46 52 52 40 25 47 74 61 50 42 33 28 25 12 10 9 3 359 1
107 104 95 89 82 80 87 91 89 92 88 78 71 60 75 89 61 42 51 59 38 32 30 21 16 16 21 34 44 56 61 52 45 47 48 48 55 62 58 60 71 73 49 23 12 12 11 9 11 10 9 11 11 12 12 13 19 25 27 33 35 32 31 34 38 44 54 64 64 56 51 63 72 58 42 36 31 27 24 25 20 8 7 12 356
106 107 103 101 97 94 98 101 100 103 106 100 80 62 72 79 57 58 63 43 34 33 24 24 36 37 32 32 30 41 59 60 49 46 47 46 49 53 52 54 57 50 34 9 353 358 6 10 9 1 2 6 7 8 9 6 10 17 22 28 31 30 28 27 27 35 51 64 67 65 63 62 59 49 36 30 27 25 28 34 29 18 25 31 355
114 110 105 104 106 113 118 117 114 115 116 111 75 63 76 71 55 65 59 26 14 8 0 358 26 38 38 42 15 6 41 65 52 44 44 42 42 45 44 42 37 31 29 16 350 341 351 3 8 4 358 0 2 3 3 2 5 15 25 27 26 28 29 25 23 30 44 51 53 55 57 57 51 42 35 32 27 25 30 34 30 27 29 26 9
125 116 110 97 93 116 130 122 105 101 102 94 40 38 72 63 52 60 47 12 359 2 7 3 338 11 21 29 16 357 5 64 55 44 41 37 36 37 35 29 20 21 28 21 356 346 347 354 1 4 356 355 359 360 358 2 9 19 31 30 25 27 28 24 25 35 44 45 43 42 44 44 42 40 38 37 33 27 27 29 29 28 21 14 14
135 119 115 95 77 108 136 125 97 78 74 69 37 19 352 326 23 30 14 5 359 5 17 20 350 350 358 2 12 9 355 31 46 44 39 33 30 29 28 22 15 14 20 18 1 355 349 347 353 0 354 353 3 10 5 12 24 32 40 40 36 34 28 24 30 42 45 43 41 38 38 36 37 39 39 38 38 31 20 15 13 11 6 359 354
154 131 134 120 81 104 150 141 122 29 14 12 1 5 353 336 2 7 0 6 6 0 6 5 340 333 334 327 346 6 351 322 4 38 40 32 25 25 28 23 15 11 17 23 12 354 349 349 352 356 355 360 21 41 36 32 39 47 56 53 43 36 32 33 41 45 44 43 40 38 36 33 32 35 36 36 36 32 21 13 10 7 2 355 347
181 155 150 150 116 160 181 167 173 268 285 308 321 332 325 318 348 356 349 357 2 355 354 353 339 332 330 323 332 348 342 315 233 284 25 28 26 27 29 21 17 22 30 25 12 358 355 354 353 358 10 31 52 59 49 40 46 59 67 55 40 35 37 41 42 42 43 44 40 37 35 32 30 31 31 31 33 33 31 28 24 20 16 16 19
198 190 186 189 202 219 222 225 230 237 252 274 290 302 299 291 308 332 333 330 340 346 345 341 338 340 340 335 337 340 334 319 205 199 3 21 27 31 32 25 22 31 37 25 13 3 357 356 5 27 53 63 58 55 52 44 50 65 64 47 39 37 39 39 37 39 44 44 39 35 34 31 28 29 29 30 32 35 34 33 32 32 34 43 50
215 222 217 211 218 227 231 233 231 230 239 258 278 290 289 280 278 292 308 302 304 318 322 319 321 322 323 330 338 340 330 312 212 188 308 12 23 30 33 29 27 32 37 30 19 13 16 33 52 62 70 64 53 53 54 48 52 62 56 43 37 35 35 36 34 38 43 44 39 35 32 29 30 31 32 34 37 37 32 30 34 42 53 59 63
237 243 237 231 232 230 229 233 235 240 250 264 282 296 297 282 268 267 277 280 283 296 302 301 303 303 303 309 314 319 327 308 233 216 246 348 19 26 27 29 32 33 30 25 25 31 50 72 74 71 72 63 52 52 51 45 49 60 54 42 35 33 34 36 36 39 44 44 39 34 29 28 33 37 38 42 45 43 38 33 32 40 46 50 54
281 263 243 240 241 239 243 250 249 248 261 278 289 301 314 305 271 259 262 269 275 287 293 294 296 299 300 303 302 305 314 299 256 251 264 309 7 20 20 25 34 34 22 19 27 36 53 75 80 78 71 53 46 55 49 42 49 65 59 43 34 35 39 40 41 45 47 44 40 35 29 31 37 41 43 47 47 45 43 38 34 35 38 43 44
7 353 251 244 244 247 260 268 259 251 259 276 288 299 309 310 292 273 270 273 278 286 292 294 297 298 300 302 301 300 300 290 271 265 268 287 331 2 16 17 26 31 23 15 19 25 40 71 87 88 74 48 45 53 40 37 48 65 58 45 38 38 42 45 47 49 47 44 42 36 30 33 38 40 44 47 46 44 42 40 37 34 37 43 42
34 41 29 239 234 247 276 286 261 250 262 276 289 301 301 299 299 296 291 288 287 288 291 294 299 302 300 299 298 296 297 300 295 282 276 286 304 323 349 1 15 25 17 2 1 9 25 49 74 85 76 60 54 42 29 30 45 60 49 43 40 41 45 47 48 47 43 42 42 37 30 32 36 39 44 44 42 41 42 40 37 35 38 44 42
47 49 64 135 178 254 294 299 276 283 299 303 308 314 305 294 294 301 306 307 304 296 291 290 294 298 297 297 299 298 299 304 306 299 291 292 294 295 304 325 353 4 356 351 341 346 9 32 57 83 77 60 56 41 24 24 41 59 44 41 44 47 50 52 50 46 42 41 40 34 31 36 40 42 43 40 36 37 41 41 40 38 39 42 40
83 66 84 120 288 287 286 298 302 303 312 316 315 316 312 306 304 306 309 314 315 310 301 294 292 292 292 295 299 301 301 305 308 311 314 310 296 280 277 290 319 340 339 341 330 328 353 40 90 115 88 55 67 52 23 20 33 41 31 40 54 58 59 58 51 45 42 39 36 34 39 46 44 39 38 36 33 34 38 41 41 39 40 43 40
151 70 1 314 305 290 292 315 319 312 311 313 313 311 310 309 313 317 319 317 316 316 313 306 297 291 290 293 297 301 304 306 309 314 321 320 303 273 261 271 294 317 325 332 332 333 1 89 150 166 133 60 85 81 31 22 20 4 22 49 68 72 71 67 55 47 44 38 36 42 50 50 42 36 34 33 33 36 39 39 37 36 37 41 40
212 270 283 300 305 295 294 309 316 314 312 313 315 315 310 307 308 315 323 326 323 321 320 316 309 302 298 297 298 300 303 306 307 311 317 319 308 272 253 261 279 298 314 331 344 355 45 142 174 184 172 100 113 119 57 27 12 359 11 52 90 89 84 78 60 51 50 46 45 51 56 50 44 42 40 38 38 40 38 35 34 35 35 35 35
246 275 279 285 294 295 296 303 308 309 309 311 312 311 310 309 307 308 312 316 319 320 324 326 322 314 305 301 299 298 298 302 306 308 312 318 315 275 249 256 270 287 302 318 342 359 38 164 180 182 172 146 159 155 105 38 12 1 3 29 118 109 93 84 65 54 55 53 48 49 52 48 43 44 46 45 41 37 35 34 34 35 33 30 28
253 273 276 273 278 286 293 297 299 300 302 306 307 306 308 311 310 306 303 304 307 312 319 328 328 317 307 304 303 302 303 308 312 314 314 318 319 283 255 258 266 285 302 305 329 350 5 174 181 181 175 175 212 176 135 42 16 5 3 17 134 121 95 86 71 59 60 55 42 39 45 41 33 36 47 48 41 36 34 32 31 33 33 30 25
255 271 275 275 276 281 288 293 295 296 300 303 302 302 306 310 310 308 304 301 303 309 316 324 326 319 313 311 307 304 307 311 319 329 329 326 319 293 274 276 276 286 299 299 321 343 346 186 182 184 186 204 223 189 142 37 20 11 9 54 143 127 100 89 75 64 64 55 40 35 33 26 24 36 55 52 46 41 33 27 27 31 28 19 12
259 270 275 279 280 281 286 290 290 293 301 303 295 290 294 301 302 303 304 303 305 308 311 317 321 321 321 317 306 302 306 307 312 330 336 333 324 301 280 284 283 284 290 288 308 337 335 201 186 188 193 194 190 176 133 41 19 16 32 121 140 123 101 93 76 66 67 55 43 38 25 19 30 60 71 57 50 44 36 30 26 22 18 15 14
261 271 277 284 287 286 285 285 285 290 299 297 284 278 283 290 292 292 293 295 298 298 297 303 308 313 319 316 301 295 297 292 288 305 316 319 317 300 277 276 271 269 279 284 299 329 324 201 190 191 192 183 176 166 129 67 29 30 69 130 136 120 108 102 80 67 65 54 44 35 26 31 56 79 70 57 54 47 39 32 25 24 27 30 32
259 270 279 284 283 279 276 276 283 292 292 281 272 275 284 290 292 290 287 284 284 282 280 284 289 294 301 300 289 284 285 281 273 271 279 290 297 290 278 272 260 253 260 269 285 311 285 204 193 190 186 180 178 177 167 120 60 56 97 135 136 122 115 102 74 60 51 40 35 25 23 41 70 81 62 57 58 42 25 18 20 27 27 25 27
257 269 280 277 267 266 273 282 290 295 287 273 270 278 289 297 300 299 294 288 283 279 275 272 273 277 281 278 272 271 273 275 272 266 266 272 276 271 263 257 251 246 243 244 262 287 249 204 194 191 185 180 180 187 194 171 106 96 121 145 145 129 121 98 65 48 33 22 17 13 22 45 71 79 62 55 49 25 21 26 37 36 23 16 17
258 265 271 266 258 268 288 293 292 290 280 269 270 282 296 307 310 309 305 298 288 282 277 271 269 268 264 256 256 260 263 268 269 264 262 264 263 260 257 251 247 243 236 232 242 260 233 207 199 194 186 183 189 198 198 187 165 142 142 156 162 150 132 107 65 45 38 34 29 22 28 55 69 78 72 53 27 11 26 37 46 42 27 14 1
256 254 265 270 264 268 284 293 293 289 281 275 277 289 306 317 317 313 308 298 285 277 276 273 271 267 258 250 249 251 253 258 261 259 258 261 261 260 260 254 247 243 237 231 232 239 227 212 204 198 190 190 197 196 183 182 189 177 160 164 170 166 154 135 85 51 46 47 41 35 49 98 79 83 91 59 32 26 29 25 23 27 23 5 353
239 248 277 288 274 267 279 292 295 295 293 290 291 305 323 324 317 315 311 298 282 275 276 279 280 273 261 254 251 248 248 250 253 256 260 261 260 262 264 259 251 244 238 232 231 236 231 217 207 203 201 201 203 200 193 197 204 194 177 174 176 176 173 161 125 57 43 42 37 34 53 147 132 102 103 72 45 39 16 5 9 18 12 352 350
237 259 285 293 282 273 277 289 298 300 295 290 294 328 340 327 323 328 327 314 297 287 284 287 291 289 276 263 254 250 250 251 250 254 261 262 261 265 269 268 259 249 239 233 234 241 238 222 212 209 206 203 207 211 209 208 211 214 213 205 191 183 180 172 152 52 24 27 24 24 36 148 177 160 113 85 79 36 355 359 11 17 358 345 351
255 275 286 291 290 287 290 303 310 303 283 273 287 325 335 335 341 346 343 333 319 308 300 297 295 293 289 280 265 258 258 259 255 254 260 263 265 267 270 270 261 248 238 233 235 239 238 226 214 209 204 203 210 218 217 213 217 231 242 231 199 183 180 174 156 346 340 356 1 5 12 156 193 191 159 116 125 31 355 4 17 13 349 342 351
269 282 291 294 297 303 310 316 310 274 242 257 300 325 334 344 353 360 2 357 346 334 325 319 308 291 282 285 282 271 265 262 260 258 258 261 265 266 262 261 254 242 235 235 234 233 233 226 214 209 207 207 211 215 218 221 227 239 249 239 205 185 183 183 227 313 309 318 332 341 346 302 209 203 191 172 167 140 357 2 15 13 348 335 343
265 276 287 292 301 310 313 305 247 199 210 270 310 330 346 355 1 7 9 4 359 355 350 345 335 314 291 281 279 275 267 262 262 262 260 261 268 269 262 256 249 234 228 229 228 226 226 224 215 211 210 211 210 212 216 223 229 238 245 238 220 208 215 237 269 285 294 304 312 319 322 294 219 206 202 194 186 194 316 329 2 15 341 319 330
262 276 286 296 309 311 297 230 180 174 197 280 307 340 356 1 3 1 354 348 352 358 355 352 351 346 327 302 282 271 265 265 269 269 262 260 266 269 262 254 244 229 220 220 221 222 225 226 219 212 211 211 210 210 213 218 226 234 237 231 224 227 238 249 260 273 287 298 304 307 306 277 214 199 199 196 189 188 255 265 305 346 329 324 335
266 278 290 308 313 292 230 189 179 194 227 254 295 323 342 349 349 350 348 345 348 353 352 350 353 356 350 334 306 280 265 263 273 275 263 256 262 266 259 247 236 227 222 222 223 224 228 230 223 215 212 213 213 212 213 217 223 227 227 223 222 227 232 239 256 277 289 292 296 300 293 255 210 196 193 191 189 188 198 214 252 302 317 326 337
273 282 300 311 291 232 199 188 198 222 237 270 293 304 317 332 343 351 354 350 346 345 348 351 351 349 350 351 339 309 279 267 274 280 271 265 270 271 257 239 229 225 225 227 227 227 229 230 223 216 215 217 218 217 218 218 218 217 215 215 218 224 230 238 257 286 292 288 289 292 276 234 208 196 191 190 193 199 205 222 262 294 309 320 332
273 283 303 304 253 209 199 203 213 220 246 281 282 282 300 318 331 343 347 344 339 334 335 345 347 341 337 343 344 332 304 280 277 282 282 280 280 275 257 240 231 229 228 228 228 228 228 227 224 221 221 222 222 222 221 220 218 216 216 216 218 225 230 235 247 280 296 293 291 284 257 225 208 199 195 194 198 208 217 230 259 287 307 318 327